Probability
0 0 0 0 0 0 0 0 0 0 0 0 0 1 2 3 6 7 12 29 55 77 91 97 97 95 93 93 90 88 83 71 56 40 22 10 4 1 0 0 0 0 0 0
0 0 0 0 0 0 0 0 0 0 0 0 0 0 1 2 5 9 16 30 54 78 93 97 96 92 89 89 87 83 76 64 49 33 18 8 3 1 0 0 0 0 0 0
0 0 0 0 0 0 0 0 0 0 0 0 0 0 0 1 4 11 21 33 53 78 94 95 92 87 82 80 77 70 61 50 36 21 11 5 2 1 0 0 0 0 0 0
0 0 0 0 0 0 0 0 0 0 0 0 0 0 0 1 4 10 21 32 51 76 91 92 85 76 68 61 56 49 42 34 23 12 6 4 1 0 0 0 0 0 0 0
0 0 0 0 0 0 0 0 0 0 0 0 0 0 0 1 3 6 15 28 50 74 88 84 70 54 42 34 28 25 21 17 12 7 5 4 2 0 0 0 0 0 0 0
0 0 0 0 0 0 0 0 0 0 0 0 0 0 0 1 1 2 10 26 51 76 82 67 44 26 16 11 9 8 6 5 4 3 3 2 2 0 0 0 0 0 0 0
0 0 0 0 0 0 0 0 0 0 0 0 0 0 0 0 0 1 7 27 55 76 70 43 20 8 3 2 1 1 0 0 0 0 0 1 1 0 0 0 0 0 0 0
0 0 0 0 0 0 0 0 0 0 0 0 0 0 0 0 0 0 7 30 62 74 57 27 8 2 0 0 0 0 0 0 0 0 0 0 0 0 0 0 0 0 0 0
0 0 0 0 0 0 0 0 0 0 0 0 0 0 0 0 0 0 8 35 67 73 50 22 6 1 0 0 0 0 0 0 0 0 0 0 0 0 0 0 0 0 0 0
0 0 0 0 0 0 0 0 0 0 0 0 0 0 0 0 0 1 10 37 67 71 46 19 6 1 0 0 0 0 0 0 0 0 0 0 0 0 0 0 0 0 0 0
0 0 0 0 0 0 0 0 0 0 0 0 0 0 0 0 0 1 9 35 65 68 42 16 4 1 0 0 0 0 0 0 0 0 0 0 0 0 0 0 0 0 0 0
0 0 0 0 0 0 0 0 0 0 0 0 0 0 0 0 0 0 9 36 66 67 40 14 3 1 0 0 0 0 0 0 0 0 0 0 0 0 0 0 0 0 0 0
0 0 0 0 0 0 0 0 0 0 0 0 0 0 0 0 0 0 10 38 65 67 41 14 2 0 0 0 0 0 0 0 0 0 0 0 0 0 0 0 0 0 0 0
0 0 0 0 0 0 0 0 0 0 0 0 0 0 0 0 0 1 12 38 64 64 39 14 3 0 0 0 0 0 0 0 0 0 0 0 0 0 0 0 0 0 0 0
0 0 0 0 0 0 0 0 0 0 0 0 0 0 0 0 0 3 16 42 65 59 34 13 3 0 0 0 0 0 0 0 0 0 0 0 0 0 0 0 0 0 0 0
0 0 0 0 0 0 0 0 0 0 0 0 0 0 1 1 3 9 25 51 69 59 30 10 3 1 0 0 0 0 0 0 0 0 0 0 0 0 0 0 0 0 0 0
0 0 0 0 0 0 0 0 0 0 0 0 0 1 3 4 7 17 36 60 71 56 26 8 2 1 0 0 0 0 0 0 0 0 0 0 0 0 0 0 0 0 0 0
0 0 0 0 0 0 0 0 0 0 0 0 0 1 3 5 8 18 34 51 55 39 17 5 1 0 0 0 0 0 0 0 0 0 0 0 0 0 0 0 0 0 0 0
0 0 0 0 0 0 0 0 0 0 0 0 0 1 2 3 5 9 17 25 26 17 7 2 0 0 0 0 0 0 0 0 0 0 0 0 0 0 0 0 0 0 0 0
0 0 0 0 0 0 0 0 0 0 0 0 0 0 1 1 1 2 3 5 5 4 2 0 0 0 0 0 0 0 0 0 0 0 0 0 0 0 0 0 0 0 0 0
0 0 0 0 0 0 0 0 0 0 0 0 0 0 0 0 1 0 0 0 0 0 0 0 0 0 0 0 0 0 0 0 0 0 0 0 0 0 0 0 0 0 0 0
0 0 0 0 0 0 0 0 0 0 0 0 0 0 0 0 0 0 0 0 0 0 0 0 0 0 0 0 0 0 0 0 0 0 0 0 0 0 0 0 0 0 0 0
0 0 0 0 0 0 0 0 0 0 0 0 0 0 0 0 0 0 0 0 0 0 0 0 0 0 0 0 0 0 0 0 0 0 0 0 0 0 0 0 0 0 0 0
0 0 0 0 0 0 0 0 0 0 0 0 0 0 0 0 0 0 0 0 0 0 0 0 0 0 0 0 0 0 0 0 0 0 0 0 0 0 0 0 0 0 0 0
0 0 0 0 0 0 0 0 0 0 0 0 0 0 0 0 0 0 0 0 0 0 0 0 0 0 0 0 0 0 0 0 0 0 0 0 0 0 0 0 0 0 0 0
0 0 0 0 0 0 0 0 0 0 0 0 0 0 0 0 0 0 0 0 0 0 0 0 0 0 0 0 0 0 0 0 0 0 0 0 0 0 0 0 0 0 0 0
Wind_Speed
11 12 15 15 16 15 9 11 13 12 4 8 11 11 7 5 8 10 12 13 14 15 13 11 11 10 10 10 11 11 11 11 9 7 7 6 6 6 6 7 7 7 6 6
11 16 15 11 11 13 14 14 15 12 7 9 11 13 10 8 10 10 11 13 14 14 12 10 10 10 11 11 11 11 11 11 9 7 6 5 6 6 6 6 6 6 6 5
17 5 9 11 13 14 16 16 15 14 11 11 12 18 17 12 11 11 12 13 14 15 15 13 12 11 11 11 11 10 11 10 11 11 8 8 6 6 5 5 4 5 5 5
16 12 8 12 15 16 15 14 14 14 15 15 12 15 17 13 12 14 15 15 15 15 15 14 13 12 11 11 10 11 11 10 10 10 9 9 6 5 5 3 4 4 3 3
12 13 15 16 15 14 14 10 12 14 15 16 13 14 15 10 13 16 17 16 15 14 13 13 13 13 12 12 11 11 11 11 9 8 9 8 7 6 5 4 4 1 3 3
16 8 11 14 13 13 11 8 10 12 13 18 17 17 15 11 13 14 14 15 13 12 12 12 12 13 13 12 11 11 11 11 10 9 8 8 8 6 5 3 2 1 1 1
19 15 12 10 10 10 12 12 10 11 13 15 13 13 13 10 10 11 9 10 13 13 14 14 15 14 14 14 13 12 12 11 10 9 9 8 8 7 5 2 2 2 2 1
18 16 19 16 18 14 14 16 13 11 11 10 7 10 8 4 5 7 7 9 13 15 15 16 16 16 15 15 14 13 12 11 10 9 8 7 6 3 4 3 2 1 2 2
10 12 10 14 16 19 18 17 18 17 17 16 13 13 8 9 12 11 9 11 15 16 16 17 17 16 16 15 13 12 12 11 9 9 8 7 5 5 4 2 1 1 2 2
10 9 8 8 10 14 17 15 11 13 15 17 17 17 13 10 9 9 11 13 16 17 16 17 16 16 15 14 12 10 10 10 9 9 6 6 6 4 3 0 1 2 3 3
8 11 11 10 13 15 14 15 13 13 14 15 15 11 4 3 4 6 8 12 16 17 17 16 16 16 15 14 12 11 10 10 9 8 7 6 4 3 1 1 2 3 4 5
2 7 11 12 4 6 11 14 16 14 15 15 15 13 1 0 4 6 6 9 13 17 17 17 17 17 15 14 13 11 11 10 9 7 6 5 3 1 2 2 3 4 5 7
2 5 9 10 9 7 8 7 9 11 12 13 15 12 4 2 2 3 5 7 11 15 16 16 16 16 16 14 13 11 10 9 8 7 6 4 2 1 2 3 4 6 7 8
5 6 8 10 6 2 3 5 6 9 12 14 15 14 6 4 5 5 4 7 12 15 15 16 16 15 15 13 12 11 10 8 7 6 4 3 1 1 3 5 6 7 8 10
5 7 7 8 8 9 11 12 11 12 14 15 16 16 13 11 10 10 7 8 13 15 15 15 15 14 14 12 11 10 9 7 6 4 3 2 1 2 4 6 7 8 9 10
3 6 7 11 11 12 16 17 17 17 17 19 20 19 12 11 9 9 8 8 12 14 14 13 13 13 13 12 11 9 8 6 4 3 1 1 1 4 5 6 7 7 7 8
4 6 9 12 10 11 16 11 11 13 14 15 16 11 13 13 12 11 9 8 9 11 12 12 12 12 11 10 9 8 7 5 4 2 0 1 3 4 5 6 6 6 7 7
6 7 7 9 7 12 2 7 6 8 6 5 7 9 11 12 11 9 9 6 4 9 12 13 13 13 12 10 8 7 6 5 3 1 1 3 4 4 4 5 6 6 6 7
6 8 7 7 10 10 3 6 8 8 6 3 7 10 12 12 8 4 10 7 6 11 14 14 14 13 12 10 7 7 6 4 2 1 3 4 4 5 5 5 6 6 7 7
5 7 8 7 8 6 5 7 9 8 9 5 9 13 14 12 8 6 10 12 15 16 16 15 14 13 11 7 6 7 5 3 3 4 5 5 5 5 5 6 6 6 6 7
7 7 9 9 8 6 8 9 10 9 5 12 15 15 12 9 5 7 11 14 15 16 17 15 14 11 8 7 7 6 4 4 4 5 6 6 5 5 5 5 6 6 7 7
5 5 6 6 8 2 10 10 9 12 18 18 17 12 6 3 8 12 14 15 16 16 15 14 12 10 8 7 6 6 6 5 5 5 5 5 4 4 4 5 5 6 7 7
4 3 4 4 4 8 9 10 12 14 16 15 12 6 3 9 12 15 15 15 15 14 13 11 11 11 8 6 5 7 6 5 5 5 5 4 4 4 5 5 5 5 6 7
3 1 5 6 4 8 9 10 10 11 9 7 3 5 11 15 16 16 15 14 13 12 11 10 11 10 8 7 7 7 6 5 5 5 4 4 4 4 5 5 6 6 6 7
2 3 5 7 6 6 6 9 9 8 9 10 12 14 16 18 18 17 15 14 12 11 10 9 9 9 9 9 9 8 6 5 6 5 4 4 4 5 4 5 6 6 7 6
2 4 4 3 4 4 5 8 9 10 11 13 15 16 16 16 18 17 15 13 12 11 9 9 10 10 10 10 9 8 7 6 5 5 5 4 4 5 6 5 3 1 2 3
Wind_Direction
189 212 217 218 223 251 269 262 250 241 236 261 248 245 233 232 238 234 226 217 209 204 188 176 165 162 161 159 154 150 143 137 134 129 129 124 115 111 100 90 82 77 68 62
195 225 229 230 225 235 240 244 247 245 229 261 259 252 244 238 242 243 239 226 217 198 173 165 164 164 164 158 152 147 144 140 135 123 113 111 114 105 95 91 82 75 71 58
221 231 215 211 212 223 233 242 250 256 254 245 261 256 241 224 234 238 239 235 222 203 187 178 174 167 158 152 149 144 140 137 131 130 126 130 128 132 126 114 102 83 80 78
233 226 193 211 221 225 238 237 252 259 261 259 246 268 254 221 220 229 230 226 220 204 194 182 173 160 150 140 133 134 131 132 134 141 145 150 145 135 120 125 108 110 85 60
221 222 215 223 229 227 246 259 249 254 260 266 250 257 263 227 237 238 228 222 216 200 187 176 165 149 138 134 131 131 130 130 132 133 133 136 127 121 126 122 109 106 90 45
240 216 226 235 236 230 238 242 247 249 253 253 250 255 261 235 235 249 232 213 206 189 169 156 144 137 133 132 131 133 131 129 130 129 128 121 117 118 117 112 103 239 66 23
228 220 215 226 218 201 217 229 235 231 227 246 243 248 262 265 250 256 248 204 190 176 161 152 148 145 141 141 139 139 136 131 130 126 119 116 116 120 118 111 100 322 325 327
219 223 213 216 229 229 216 229 247 264 264 264 224 240 263 259 262 264 249 205 181 174 167 162 159 154 151 148 147 144 139 134 133 126 120 117 124 119 101 80 12 342 325 345
233 232 211 217 226 237 239 235 247 261 270 275 270 272 264 242 243 239 224 198 183 176 169 166 162 158 155 152 151 147 140 136 134 129 124 122 112 85 85 102 247 301 310 296
256 247 212 209 224 228 244 247 242 245 257 263 263 259 258 251 249 232 214 200 185 175 170 167 164 160 156 151 148 144 142 139 136 134 131 121 110 103 100 29 5 316 294 293
241 243 231 210 221 229 215 228 234 247 252 264 267 266 301 265 294 273 228 202 185 175 170 168 164 159 154 151 149 148 146 143 140 132 124 116 112 109 112 257 273 280 286 289
247 252 244 230 223 297 245 238 235 246 253 255 266 274 341 5 303 286 252 203 183 172 170 168 163 158 157 157 155 154 153 146 139 132 126 121 123 150 246 263 280 277 276 281
327 248 240 218 200 205 228 237 256 256 263 263 266 273 123 125 316 304 259 200 175 169 168 166 162 162 162 161 157 155 148 141 135 131 131 132 161 214 266 279 279 281 281 283
287 264 269 275 341 14 251 244 257 264 259 264 263 276 274 284 313 314 264 206 176 172 171 168 166 165 161 158 152 146 140 134 129 126 125 131 172 257 278 284 287 287 288 289
302 260 267 285 299 293 284 279 276 272 278 282 284 286 293 313 322 313 279 216 185 178 176 173 168 162 156 148 140 135 126 119 119 121 128 141 188 262 281 291 296 298 299 300
315 278 273 268 268 278 279 274 272 271 272 273 275 277 312 332 323 307 283 231 200 184 176 171 160 150 144 137 131 123 117 116 116 117 140 140 283 291 300 306 311 317 324 331
261 267 268 269 271 282 267 279 283 281 281 285 287 319 345 332 325 318 306 263 214 182 167 156 141 133 126 123 119 117 117 119 125 134 164 325 313 317 327 337 349 356 354 352
269 262 262 267 257 251 69 49 351 304 301 357 0 352 345 336 328 334 332 304 191 157 146 133 124 118 113 111 109 112 117 122 130 137 335 341 342 351 12 19 22 8 356 348
242 245 251 252 253 261 188 63 1 316 282 21 358 353 349 342 309 34 27 33 92 112 111 110 111 111 109 109 113 116 118 123 124 36 16 18 17 31 37 34 20 6 351 347
193 227 245 238 253 258 82 38 341 289 258 60 2 345 342 336 318 39 55 73 86 94 100 105 105 105 104 107 117 116 116 106 64 43 47 53 53 51 46 33 10 3 350 352
194 204 229 242 248 266 53 354 321 270 339 354 334 328 327 331 8 73 84 87 93 98 101 103 103 101 102 107 107 103 92 70 60 70 77 76 74 65 44 27 13 360 357 2
244 233 225 239 248 254 27 345 327 318 321 315 314 316 325 55 93 96 97 97 99 100 101 102 101 99 98 100 101 91 75 76 83 90 91 83 61 36 37 22 11 8 358 359
248 316 311 291 311 2 353 334 319 311 304 305 305 305 134 116 107 103 100 99 99 101 103 105 108 107 105 102 95 89 86 92 98 96 86 73 56 38 21 7 14 16 14 4
174 241 272 277 297 344 350 346 342 339 331 337 4 100 115 112 108 104 102 101 104 108 114 119 117 115 112 104 91 89 91 93 91 85 75 63 41 41 46 17 26 22 15 8
314 279 273 279 312 333 10 11 10 24 47 66 79 92 103 106 106 106 107 110 116 121 124 123 117 112 105 97 89 86 86 84 81 75 64 50 50 46 48 54 34 18 37 15
321 311 300 322 352 347 19 37 53 69 74 83 92 96 100 106 111 112 114 119 122 126 128 125 119 112 105 98 89 80 70 64 68 73 58 46 46 44 40 39 63 132 5 347